星链-1627 (STARLINK-1627 )

导读 | 星芒AI

STARLINK-1627 是 SpaceX Starlink 项目中的一颗低轨通信卫星,属于第 16 批发射的星链卫星群。该卫星于 2022 年发射,运行在约 550 公里的轨道高度,旨在为全球用户提供高速互联网服务。它采用先进的推进系统和激光通信技术,支持星间通信,提高网络效率与稳定性。作为 Starlink 卫星互联网计划的一部分,STARLINK-1627 有助于扩大覆盖范围,特别是在偏远和网络基础设施薄弱的地区。

基本信息
目录编号:
46168
目录名称:
STARLINK-1627
国际标识:
2020-057BD
轨道中心:
EARTH
卫星名称:
星链-1627
卫星全名:
星链-1627 (STARLINK-1627 )
卫星状态:
在轨 (已飞行1898 天)
发射日期:
2020-08-18 UTC
国别 :
美国 (US)
星等 :
--
轨道信息
数据来源 国际轨道数据
星历时间: 2025-10-29T20:00:03+0800
4小时前
查看轨道信息
半长轴: 6845.778km
偏心率: 0.0001218
轨道倾角: 53.054°
近地点辐角 100.610°
升交点赤经 133.889°
平近点角 218.239°
近地点: 466.809km
远地点: 468.477km
周期: 93.949分钟
每日圈数: 15.327404
详细信息
固有亮度:
5
最大亮度:
2.5
卫星平台:
Starlink V1.0
覆盖范围:
全球
运营商:
太空探索技术公司
运营商所在国:
美国
制造商(研发单位):
太空探索技术公司
制造商所在国:
美国
使用方式:
暂无
卫星简介
星链(Starlink)计划是由太空探索技术公司(SpaceX)提出的一个巨型低轨卫星互联网星座项目,计划在2019年至2024年间在太空搭建由约1.2万颗卫星组成的“星链”网络,其中1584颗将部署在地球上空550千米处的近地轨道,并从2020年开始工作。该卫星仍在工作。
2D轨道图
3D轨道图
轨道高度分析图
轨道倾角分析图
轨道综合分析图
查看轨道综合分析图